This is the latest recevied weather packets stored in our database for station/object WX6HNX-12. If no packets are shown the sender has not sent any weather packets the latest 10 day(s).
| Time | Temp. | Humidity | Pressure | Rain* | Wind** | Luminosity | Snow |
|---|---|---|---|---|---|---|---|
| 1777664439 | 30.56° C | 28% | 1012.3 hPa | 0 mm | - | - | - |
| 1777664141 | 30.56° C | 28% | 1012.3 hPa | 0 mm | - | - | - |
| 1777663841 | 30.56° C | 29% | 1012.3 hPa | 0 mm | - | - | - |
| 1777663545 | 30.56° C | 29% | 1012.4 hPa | 0 mm | - | - | - |
| 1777662671 | 30° C | 29% | 1012.6 hPa | 0 mm | - | - | - |
| 1777662371 | 30° C | 29% | 1012.7 hPa | 0 mm | - | - | - |
| 1777662070 | 29.44° C | 30% | 1012.8 hPa | 0 mm | - | - | - |
| 1777661770 | 28.89° C | 31% | 1012.9 hPa | 0 mm | - | - | - |
| 1777661473 | 28.33° C | 32% | 1013 hPa | 0 mm | - | - | - |
| 1777661170 | 28.89° C | 31% | 1013.1 hPa | 0 mm | - | - | - |
| 1777660869 | 28.89° C | 30% | 1013.2 hPa | 0 mm | - | - | - |
| 1777660271 | 28.33° C | 30% | 1013.4 hPa | 0 mm | - | - | - |
| 1777659673 | 28.33° C | 32% | 1013.4 hPa | 0 mm | - | - | - |
| 1777659371 | 27.78° C | 31% | 1013.5 hPa | 0 mm | - | - | - |
| 1777659070 | 27.78° C | 32% | 1013.5 hPa | 0 mm | - | - | - |
| 1777658771 | 28.33° C | 33% | 1013.6 hPa | 0 mm | - | - | - |
| 1777658471 | 27.78° C | 34% | 1013.6 hPa | 0 mm | - | - | - |
| 1777657857 | 27.78° C | 36% | 1013.6 hPa | 0 mm | - | - | - |
| 1777657558 | 26.11° C | 40% | 1013.6 hPa | 0 mm | - | - | - |
| 1777657257 | 26.11° C | 40% | 1013.6 hPa | 0 mm | - | - | - |
| 1777656958 | 26.11° C | 40% | 1013.7 hPa | 0 mm | - | - | - |
| 1777656658 | 26.11° C | 40% | 1013.6 hPa | 0 mm | - | - | - |
| 1777656360 | 25.56° C | 40% | 1013.7 hPa | 0 mm | - | - | - |
| 1777656058 | 25.56° C | 41% | 1013.7 hPa | 0 mm | - | - | - |
| 1777655458 | 25° C | 41% | 1013.8 hPa | 0 mm | - | - | - |
* Rain latest hour (hover to see other rain measurements)
** Current wind speed in m/s (hover to see current wind gust speed)